Showing default

RADIO ROSTO, 23439

Orbit data source: Space-Track

RADIO ROSTO, 23439 is a payload satellite owned by NPO PM (CIS) in LEO that was launched on Mon, 26 Dec 1994 UTC via an ROKOT launch vehicle from the Tyuratam Missile And Space Complex (TTMTR). Payload-class satellites include a variety of spacecraft equipped with specific instruments for various scientific and technological missions. These include communications satellites like Starlink; space stations such as the ISS; scientific satellites like the Hubble; Earth observation satellites from companies like Planet Labs, Umbra, and HawkEye 360; GPS; miniature CubeSats for education and research; and military/defense satellites.

Loading next visibility...
Identifier
23439, 1994-085A
Orbit
LEO
Country
Flag of CISCIS
Related business
Manufacturer
NPO PM
Mission
Partially operational Civil Communications
Bus & Motor
STRELA-1M, Unknown motor
Mass
70 kg wet, 70 kg dry
Launch date (UTC)
1994-12-26 (31 years ago)
Launch vehicle
ROKOT
Launch site
Tyuratam Missile And Space Complex (TTMTR)
Object type
Payload
Rocket body
Debris
Shape & HBR
Sphere, Unknown HBR
Radar Cross Section
0.785 m², Medium (>0.1 m² and < 1m²)

Expand to show TLE details & history
Last TLE update: 2 days ago

TLE from 2 days ago
0 RADIO ROSTO
1 23439U 94085A   26171.39747735 -.00000030  00000-0  35297-3 0  9992
2 23439  64.8186 298.0240 0156038   3.2812 356.9100 11.27583497296266
Epoch: 2026-06-20T09:32Z
TLE epoch observation values (Epoch: 2026-06-20T09:32:22.043Z)
Latitude
0.00004°
Longitude
-113.68051°
Altitude
1,893.094 km
Speed
6.997 km/s
True Right ascension
19h 52m 05s
True Declination
0° 00' 00"
Sunlit
Object was in full shadow at epoch
Visualization orbit readout
Latitude
Unknown
Longitude
Unknown
Altitude
Unknown
Speed
Unknown
Apparent Right ascension
Unknown
Apparent Declination
Unknown
Sunlit
N/A
Visualization observer readout
Local Sidereal Time
00:54:27
Azimuth
Unknown
Elevation
Unknown
Doppler factor
Unknown
Orbital elements
Apogee altitude
2,152.183 km
Perigee altitude
1,890.063 km
Semi-major axis
8,399.26 km
Eccentricity
0.0156
Inclination
64.8186°
RAAN
298.024°
Arg. of periapsis
3.2812°
True anomaly
356.8117°
Mean anomaly
356.91°
Eccentric anomaly
356.86104°
Mean motion
2.81956 °/min
Orbital period
127.68 mins
BSTAR
0.00035297
Loading maneuver chart data...
Computing Atmospheric mass density...
Loading historical data...
Loading historical data...
Loading historical data...
Loading historical data...
Loading historical data...
Loading historical data...
Loading historical data...

Documentation

Showing up to 5 results
|